Temperature
14 14 15 15 13 11 13 14 15 16 16 17 17 17 16 16 17 17 16 16 17 17 16 16 16 16 17 17 17 17 17 17 16 17 16 16 16 16 16 16 16 16 16 16 16 16 16 16 16
14 14 14 14 11 12 13 14 15 16 17 17 17 17 16 16 16 16 16 16 16 16 16 16 16 16 16 16 17 17 17 17 16 16 16 16 16 16 16 16 16 16 16 16 16 16 16 16 16
13 14 14 11 11 12 14 14 14 16 17 17 16 16 16 16 16 16 16 16 16 16 16 16 16 16 16 16 16 16 16 16 16 16 16 16 16 16 16 16 16 16 16 16 16 16 16 16 16
13 14 13 11 12 13 14 14 14 15 16 16 15 15 15 15 16 16 16 16 16 16 16 16 16 16 16 16 16 16 16 16 16 16 16 16 16 16 16 16 16 16 16 16 15 15 15 15 15
13 13 11 11 12 13 13 14 15 14 15 15 15 13 14 15 15 16 15 15 16 15 15 15 15 16 16 16 16 16 16 16 16 16 16 16 16 16 15 15 15 15 15 15 15 15 15 15 15
13 11 10 11 12 13 13 15 15 14 14 15 14 13 14 15 15 15 15 15 15 15 15 15 15 15 15 15 16 16 16 16 16 16 16 16 16 15 15 15 15 15 15 15 15 15 15 15 15
12 9 10 11 12 13 14 14 14 13 13 14 15 13 13 14 14 14 14 15 15 15 15 15 14 15 15 15 15 15 15 15 15 15 15 15 15 15 15 15 15 15 15 15 15 15 15 15 15
12 9 11 11 12 13 13 14 14 14 14 14 15 13 13 14 14 14 14 14 14 14 14 14 14 14 14 15 15 15 15 15 15 15 15 15 15 15 15 15 15 15 15 15 15 15 15 15 15
12 9 10 11 12 13 13 13 14 14 14 14 14 14 14 13 13 13 13 13 13 14 14 14 14 14 14 14 14 14 15 15 15 15 15 15 15 15 14 14 14 15 15 15 15 15 15 14 14
11 9 10 12 12 12 13 13 13 13 12 12 13 13 13 13 13 13 13 13 13 13 13 14 14 14 14 14 14 14 14 14 14 14 14 14 14 14 14 14 14 14 14 14 14 14 14 14 14
10 10 11 12 13 13 12 13 13 12 11 12 13 13 13 13 13 13 13 13 13 13 13 13 13 13 13 13 14 14 14 14 14 14 14 14 14 14 14 14 14 14 14 14 14 14 14 14 14
10 11 12 12 13 13 12 13 12 12 13 13 14 13 13 12 12 12 13 13 13 13 13 13 13 13 13 13 13 14 14 14 14 14 14 14 14 14 14 13 14 14 14 14 14 14 14 14 14
10 11 12 13 13 13 13 12 12 12 13 13 13 13 13 12 12 12 12 12 12 13 13 13 13 13 13 13 13 13 13 13 14 14 14 14 13 13 13 13 13 14 14 14 14 14 14 14 14
11 11 11 12 12 12 12 11 11 12 13 13 12 12 12 12 12 12 12 12 12 12 13 13 13 13 13 13 13 13 13 13 13 13 13 13 13 13 13 13 13 13 13 14 14 13 13 13 13
11 10 11 11 12 12 11 11 11 12 12 12 12 12 12 12 12 12 12 12 12 12 12 12 13 13 13 13 13 13 13 13 13 13 13 13 13 13 13 13 13 13 13 13 13 13 13 13 13
10 10 10 11 11 11 11 10 11 12 11 11 11 11 11 11 11 12 12 12 12 12 12 12 12 12 13 12 12 12 13 13 13 13 13 12 12 12 13 13 13 13 13 13 13 13 13 13 13
9 9 9 10 11 10 10 10 11 12 11 11 11 11 11 11 11 11 11 11 12 12 12 12 12 12 12 12 12 12 12 12 12 12 12 12 12 12 12 12 13 13 13 13 13 13 13 13 13
9 8 9 9 10 10 9 9 10 11 11 10 11 11 11 11 11 11 11 11 11 11 12 12 12 12 12 12 12 12 12 12 12 12 12 12 12 12 12 12 12 12 12 13 12 12 12 12 12
9 9 9 10 10 9 9 9 10 10 10 10 10 11 11 11 11 11 11 11 11 11 11 11 12 12 12 12 12 12 12 12 12 12 12 12 12 12 12 12 12 12 12 12 12 12 12 12 12
9 9 9 9 10 10 9 9 9 9 9 10 10 10 11 11 11 11 11 11 11 11 11 11 11 11 12 12 12 12 12 11 11 11 11 11 11 11 12 12 12 12 11 11 11 11 11 11 11
9 9 9 9 9 9 9 9 9 9 10 10 10 11 11 11 11 11 11 11 11 11 11 11 11 11 11 11 11 11 11 11 11 11 11 11 11 11 11 11 11 11 11 11 11 11 11 11 11
9 9 9 9 8 7 9 8 9 9 9 9 9 10 10 10 11 11 11 10 11 11 10 11 11 11 11 10 11 11 11 11 11 11 11 11 10 11 11 11 11 11 11 11 11 10 10 10 10
9 9 9 9 8 7 8 7 8 8 8 8 8 9 10 10 10 10 10 10 10 10 10 10 10 10 10 10 10 10 10 10 10 10 10 10 10 10 10 10 10 10 10 10 10 10 10 10 10
9 8 8 7 7 7 8 7 8 7 8 8 8 9 9 10 10 10 10 10 10 10 10 10 10 10 10 10 10 10 10 10 10 10 10 9 9 9 10 10 10 10 10 10 10 10 10 10 10
8 7 7 7 7 7 8 8 8 8 8 8 8 8 9 9 10 9 9 10 10 10 10 9 9 9 9 9 9 9 9 9 9 9 9 9 9 9 9 9 9 9 9 9 10 10 10 9 9
7 7 7 8 7 7 7 7 7 8 8 8 8 8 9 9 9 9 9 9 9 9 9 9 9 9 9 9 9 9 9 9 9 9 9 9 9 9 9 9 9 9 9 9 9 9 9 9 9
7 6 7 6 6 6 6 7 7 8 7 7 7 7 8 8 9 9 9 9 9 9 9 9 9 9 9 9 9 9 9 9 9 9 9 9 8 8 8 8 8 9 9 9 9 9 9 9 9
7 7 5 5 6 7 7 7 7 7 7 6 6 6 7 8 8 8 9 9 9 9 8 8 8 8 8 8 8 8 8 8 8 8 8 8 8 8 8 8 8 8 8 8 8 8 8 8 8
6 6 6 5 5 6 6 7 7 6 6 5 5 6 7 7 8 8 8 8 8 8 8 8 8 8 8 8 8 8 8 8 8 8 8 8 7 7 7 7 7 8 8 8 8 8 8 8 8
6 6 5 5 5 4 4 6 7 6 6 5 6 7 7 7 7 7 8 8 8 8 8 7 8 8 8 8 8 7 7 7 7 7 7 7 7 7 7 7 7 7 7 7 7 7 7 7 7
Wind_Speed
10 8 2 4 4 3 3 4 3 1 1 1 0 2 4 2 3 3 2 4 8 9 11 12 11 11 11 11 12 12 11 11 10 11 12 12 12 12 12 12 11 11 11 10 10 10 10 10 10
6 3 4 4 4 2 4 4 3 4 3 1 1 2 2 0 1 4 3 3 8 10 11 11 11 11 11 11 11 11 11 11 10 10 11 11 11 12 12 11 11 11 10 10 10 9 9 9 8
4 2 3 4 4 6 5 4 6 3 2 1 1 1 1 2 2 2 3 5 8 8 10 11 11 10 11 10 11 11 11 11 10 10 10 11 11 11 11 10 10 10 10 10 9 9 8 8 7
2 4 3 3 4 5 5 4 3 1 2 2 2 1 1 1 2 3 4 6 8 6 8 10 11 10 10 10 10 11 11 11 10 10 10 10 10 10 10 9 9 10 10 9 8 8 8 7 6
3 3 3 1 5 4 4 4 2 2 1 0 1 1 2 2 1 4 6 7 8 6 7 9 11 10 10 10 10 10 10 11 11 11 10 9 10 10 9 9 9 9 10 9 8 8 7 6 5
3 3 3 4 5 3 3 3 1 1 2 1 1 1 2 2 2 4 5 6 7 6 6 8 10 10 10 10 10 10 10 11 11 10 10 9 9 10 9 9 9 9 9 9 8 7 6 5 4
4 4 4 4 3 3 3 2 3 3 2 3 3 2 2 2 1 3 4 5 5 6 6 6 7 8 9 9 10 10 10 10 10 10 9 9 8 9 9 9 9 9 9 9 8 7 6 5 4
4 4 2 3 4 4 2 1 2 3 3 2 2 4 4 4 2 2 3 4 4 4 5 4 5 6 7 8 10 10 10 10 9 9 9 8 7 8 8 8 9 8 9 8 8 7 5 4 3
3 3 3 4 5 4 2 0 2 1 1 1 1 4 5 4 2 3 3 3 3 3 3 4 4 5 6 7 8 9 9 9 8 7 8 7 6 6 7 7 8 8 8 8 7 6 5 4 3
4 3 6 4 4 4 3 2 2 1 1 2 3 2 1 4 4 4 5 5 5 5 4 3 4 4 5 5 6 7 7 8 7 7 7 6 6 5 6 7 7 7 7 7 7 6 4 3 2
4 5 4 4 4 3 2 2 2 2 3 4 5 3 1 3 5 5 6 6 6 5 4 3 4 4 4 4 5 5 6 6 6 7 7 7 6 5 5 5 5 5 5 4 4 4 2 2 2
3 5 5 4 2 2 3 2 2 4 6 6 6 5 3 3 4 5 6 6 5 5 4 3 3 4 4 5 4 5 5 5 5 6 7 7 4 3 3 3 3 3 3 3 3 2 1 1 1
4 4 4 5 4 4 3 4 3 5 5 2 2 3 4 4 4 3 4 5 5 5 4 4 4 4 4 4 4 4 5 5 6 6 7 7 5 4 4 3 3 2 2 2 2 1 1 0 1
4 4 5 5 4 2 3 4 2 6 2 1 2 3 3 4 3 2 2 3 4 4 4 3 3 4 5 4 4 4 5 6 6 6 6 8 6 5 4 3 3 2 2 2 2 2 1 1 1
2 2 4 4 3 2 1 4 5 6 2 1 1 2 2 2 2 3 4 4 4 4 4 3 3 4 5 5 4 4 5 5 5 5 7 7 7 6 5 4 3 2 2 2 2 1 1 1 1
0 0 3 5 2 1 3 6 6 3 3 2 2 2 2 2 2 2 2 2 4 4 4 3 3 3 4 4 3 3 4 5 4 5 6 7 7 7 6 4 3 3 3 2 2 2 1 1 0
1 2 4 4 3 1 3 6 5 2 3 3 3 3 2 1 1 1 1 2 3 4 4 4 3 3 3 3 3 2 3 4 4 4 5 6 7 7 6 4 3 3 2 2 2 2 2 1 0
4 4 4 5 3 1 4 7 6 3 4 4 3 2 2 2 3 2 1 2 3 3 4 4 3 3 3 3 3 2 2 2 3 4 4 5 6 7 6 4 3 3 3 2 2 2 1 2 1
4 4 6 6 3 2 6 8 8 5 4 4 4 3 3 4 3 1 2 3 3 3 3 3 4 3 3 2 2 2 2 1 2 3 4 5 5 6 6 4 4 3 3 3 2 2 2 1 1
3 4 5 5 2 3 5 8 7 5 5 5 5 5 5 2 1 1 2 3 3 3 3 4 3 3 2 2 2 2 2 1 1 2 2 3 4 5 5 5 4 4 3 3 2 2 2 1 1
4 4 4 4 4 2 2 6 5 3 3 2 3 4 4 5 4 3 3 2 3 3 3 3 3 3 3 3 3 3 3 2 2 1 1 1 3 4 4 4 4 4 4 4 3 3 3 2 1
5 4 4 3 1 3 1 4 6 4 3 3 4 4 4 3 4 4 4 3 3 3 3 3 3 3 3 4 4 4 3 2 1 1 1 1 2 2 3 4 4 4 4 4 4 3 3 3 2
5 3 2 3 2 3 2 3 7 2 4 6 6 5 4 3 4 4 4 4 3 2 2 2 3 3 3 3 4 4 3 2 1 1 1 1 1 1 2 3 4 3 3 4 4 3 3 3 3
1 3 2 3 2 3 5 5 6 4 6 5 4 4 4 3 3 4 3 3 2 2 2 2 3 3 3 3 3 4 4 3 2 2 1 1 0 0 1 2 3 3 3 3 4 4 3 3 3
3 4 3 3 1 6 2 4 7 5 5 5 5 5 4 3 4 4 4 3 3 2 2 2 3 2 2 2 2 2 3 4 3 3 3 2 1 1 1 1 2 3 3 3 3 3 4 4 4
3 5 5 4 5 5 2 5 6 4 2 2 2 3 3 3 3 4 5 4 3 3 3 2 2 1 1 2 1 1 2 2 2 3 2 2 2 2 1 2 2 3 3 3 3 3 3 4 4
3 3 4 3 2 3 5 5 5 1 2 2 2 3 2 2 2 2 3 3 3 3 3 3 3 2 2 2 1 1 1 2 2 2 2 2 2 2 1 2 2 2 2 3 3 3 3 4 4
3 5 4 3 3 4 5 5 4 4 2 0 1 2 2 2 2 2 2 3 3 3 2 2 3 3 2 2 2 1 1 2 2 2 3 3 3 2 2 2 3 2 2 2 3 2 3 3 3
3 3 3 3 3 4 4 6 3 4 4 4 4 3 3 3 3 2 3 3 2 2 2 2 2 2 2 2 1 1 1 1 1 2 3 3 2 2 2 3 2 2 2 2 3 3 3 3 3
5 6 6 4 4 4 3 6 3 1 2 3 3 2 2 2 2 2 2 2 1 1 1 2 2 2 2 1 1 1 1 1 2 2 2 3 3 2 2 2 2 2 2 2 3 4 3 3 3
Wind_Direction
334 339 45 57 64 61 231 235 202 193 249 261 246 123 136 154 183 181 166 134 130 141 145 142 145 145 141 136 134 132 130 129 127 130 131 132 133 132 130 129 129 126 123 121 119 113 111 109 110
335 355 54 66 113 178 247 231 208 218 211 193 20 75 82 103 100 117 124 136 132 140 144 143 140 146 145 141 139 138 138 136 133 135 136 135 137 138 135 133 132 130 126 124 120 116 114 114 115
331 44 89 92 151 191 213 212 210 235 246 125 29 26 126 170 128 148 168 146 129 136 142 144 144 145 148 147 144 145 143 142 139 140 141 141 139 138 139 139 136 133 129 126 124 123 122 121 121
53 51 64 103 212 220 209 224 202 227 351 40 101 359 310 240 174 171 153 134 126 130 137 146 149 149 149 149 150 151 152 149 147 144 142 145 144 142 139 140 139 136 133 131 131 131 129 128 130
64 86 88 213 238 243 225 234 211 190 187 161 112 197 282 313 145 142 143 135 131 132 138 149 154 153 152 154 155 156 157 156 154 151 148 147 148 146 145 143 139 142 139 137 138 139 136 135 135
66 84 128 222 241 249 252 234 184 206 219 226 135 183 237 277 98 145 138 131 136 139 138 146 158 157 154 158 159 160 160 161 159 156 153 152 149 149 150 149 145 146 147 146 146 146 144 143 139
118 124 174 211 235 245 238 223 180 203 233 227 165 168 227 246 175 143 131 128 132 135 135 141 151 160 161 164 164 165 164 161 163 162 157 156 156 153 155 155 153 152 155 156 156 157 156 158 156
138 125 176 222 219 234 229 222 219 194 233 228 160 175 214 229 198 117 119 122 129 139 141 144 152 160 166 169 173 166 164 161 163 168 165 161 162 161 161 165 162 161 163 164 165 164 167 170 178
107 98 205 218 212 232 218 278 300 273 165 307 259 221 222 194 151 114 134 131 139 150 152 152 152 161 167 173 174 166 166 163 160 162 162 158 158 160 165 168 167 167 170 172 172 172 174 182 197
114 177 221 227 216 221 225 209 228 350 317 299 317 320 169 174 159 161 174 168 165 166 171 166 150 163 166 169 167 163 164 160 154 151 148 147 149 155 159 155 158 162 164 169 171 169 165 167 199
166 200 228 257 251 221 225 240 196 155 252 236 241 233 185 176 166 175 193 180 181 177 177 172 158 164 167 165 166 158 157 155 150 150 146 141 137 139 135 130 141 148 154 150 159 147 150 168 201
196 238 233 251 258 244 224 238 251 208 236 252 222 190 171 190 186 188 194 191 178 174 177 178 168 168 175 169 165 162 160 156 152 156 153 143 135 134 132 128 136 138 148 143 140 134 143 166 221
222 246 253 259 268 252 241 243 250 260 258 271 173 163 176 198 197 194 185 181 170 169 180 188 178 177 182 170 171 167 170 168 164 162 160 154 149 155 149 143 135 133 145 156 149 148 162 212 264
231 246 270 273 264 255 229 271 243 263 241 122 157 199 204 201 198 173 165 172 170 176 183 183 173 179 171 168 170 181 172 166 160 162 165 159 152 153 155 153 140 143 163 168 162 168 179 215 247
247 273 290 266 256 235 171 290 238 243 169 152 234 222 215 214 207 197 193 183 173 175 176 174 173 165 157 162 166 176 171 162 162 167 166 164 160 157 155 158 159 166 164 151 141 137 158 190 219
32 351 278 269 241 216 155 258 258 228 166 216 256 244 215 213 217 218 187 168 166 161 159 164 165 157 154 156 155 165 156 153 158 161 159 163 163 159 154 161 170 166 148 135 157 160 160 171 167
35 263 257 278 237 171 196 255 273 242 186 219 246 255 249 249 274 256 141 149 160 160 154 152 148 154 147 139 139 154 147 147 150 145 149 156 159 159 155 160 161 152 140 143 168 162 162 172 195
237 248 255 250 250 229 247 262 274 250 204 214 229 246 254 244 246 232 146 145 141 138 138 142 129 129 124 111 107 117 121 132 136 141 145 151 156 160 154 152 155 150 151 154 160 160 151 161 166
219 233 258 257 234 224 246 264 267 247 219 224 233 224 230 242 248 208 152 133 113 100 108 126 117 119 120 114 115 145 156 151 150 153 149 151 154 159 156 157 157 159 166 171 159 146 151 146 111
234 254 270 287 260 224 254 268 264 232 222 220 219 220 221 239 294 173 132 124 122 128 132 118 117 122 130 137 151 150 141 138 154 161 151 158 157 155 161 163 166 166 163 157 150 134 151 163 125
255 223 241 263 318 283 292 297 267 241 228 232 234 234 223 207 201 184 144 144 134 144 151 139 123 114 110 111 108 80 70 69 67 106 155 160 163 161 155 161 165 170 168 173 173 164 152 168 172
252 229 228 246 323 274 203 278 274 238 239 238 241 238 236 220 190 176 162 167 168 181 166 140 129 118 117 118 121 131 133 140 179 183 182 162 157 163 169 162 167 179 177 174 179 172 163 158 171
231 256 233 228 212 294 237 203 278 254 240 242 236 235 233 213 177 173 172 174 173 165 149 136 122 116 115 131 141 141 132 140 137 117 123 160 147 178 179 175 167 175 182 179 174 166 168 165 173
215 20 33 53 89 269 234 191 272 234 225 234 229 224 224 208 169 160 146 132 119 109 116 125 127 125 125 129 137 144 142 137 125 133 148 195 185 220 206 179 176 174 181 189 183 177 178 179 173
77 83 36 358 329 250 246 196 248 250 231 206 201 206 204 187 170 158 146 138 131 128 120 119 122 111 116 123 138 153 157 153 165 185 186 188 197 221 241 193 184 181 183 195 181 177 193 188 182
196 153 166 202 226 272 289 228 249 261 255 193 175 180 172 168 175 176 173 165 160 156 147 140 138 126 142 150 167 167 172 168 185 198 186 194 205 213 214 208 201 192 183 187 181 183 194 185 189
157 195 180 156 211 258 265 272 299 328 33 73 101 113 154 179 167 168 167 166 167 170 175 173 166 162 175 178 172 181 204 200 205 205 190 196 205 201 189 199 198 199 183 182 185 188 195 189 193
172 155 118 148 189 247 274 259 244 243 237 180 150 165 197 185 155 155 170 175 177 182 180 171 177 184 191 190 197 197 223 228 215 191 188 194 204 195 188 211 204 199 183 175 188 191 194 191 198
164 174 161 164 188 189 248 263 234 216 205 195 207 203 188 185 193 201 203 200 187 164 163 172 180 176 189 199 205 201 221 226 198 186 197 194 195 193 195 209 209 208 200 187 189 195 190 188 199
192 189 160 174 228 200 207 264 292 240 223 191 202 222 204 188 200 207 200 183 179 197 206 199 191 189 204 201 190 211 231 195 186 189 196 191 192 196 193 201 207 218 217 204 195 193 194 194 201
Height
1511 1511 1513 1514 1518 1526 1525 1518 1512 1511 1510 1509 1508 1508 1509 1510 1512 1516 1512 1511 1512 1514 1516 1518 1519 1521 1522 1523 1523 1524 1525 1526 1528 1529 1530 1531 1532 1533 1534 1535 1536 1537 1537 1538 1539 1540 1541 1542 1542
1510 1511 1513 1514 1522 1530 1525 1515 1512 1509 1508 1508 1508 1507 1507 1508 1509 1509 1509 1510 1512 1513 1515 1517 1518 1520 1521 1522 1523 1524 1525 1526 1527 1528 1529 1530 1531 1532 1533 1535 1535 1536 1537 1538 1539 1540 1540 1541 1542
1510 1511 1513 1515 1521 1524 1518 1511 1509 1507 1507 1507 1507 1507 1508 1508 1508 1508 1508 1510 1512 1513 1515 1516 1517 1519 1520 1521 1522 1523 1524 1525 1526 1528 1529 1530 1531 1532 1533 1534 1535 1536 1537 1537 1538 1539 1540 1541 1542
1510 1512 1513 1518 1518 1514 1510 1507 1506 1506 1506 1506 1506 1507 1507 1508 1507 1508 1508 1510 1511 1512 1513 1515 1516 1517 1519 1520 1521 1522 1523 1525 1526 1527 1528 1529 1530 1531 1532 1534 1535 1535 1536 1537 1538 1539 1539 1540 1541
1509 1510 1515 1519 1515 1510 1506 1505 1504 1504 1505 1505 1506 1506 1505 1506 1506 1507 1507 1508 1509 1510 1512 1513 1514 1515 1517 1518 1520 1521 1522 1523 1525 1526 1527 1528 1529 1531 1532 1533 1534 1535 1536 1536 1537 1538 1539 1540 1541
1509 1510 1520 1520 1514 1508 1505 1504 1504 1504 1504 1504 1504 1504 1503 1504 1504 1505 1506 1507 1508 1509 1510 1511 1513 1514 1515 1517 1518 1519 1521 1522 1523 1525 1526 1527 1528 1530 1531 1532 1533 1534 1535 1536 1536 1537 1538 1539 1540
1509 1513 1516 1515 1512 1509 1505 1503 1503 1502 1502 1502 1502 1502 1501 1502 1503 1503 1504 1505 1506 1507 1508 1510 1510 1512 1513 1515 1516 1518 1519 1521 1522 1524 1525 1526 1527 1529 1530 1531 1532 1533 1534 1535 1536 1537 1538 1539 1539
1507 1511 1513 1513 1510 1507 1503 1502 1501 1501 1500 1500 1500 1499 1499 1500 1500 1501 1502 1502 1503 1505 1507 1508 1509 1510 1511 1513 1514 1516 1518 1519 1521 1522 1524 1525 1526 1528 1529 1530 1531 1532 1533 1534 1535 1536 1537 1538 1539
1507 1514 1514 1510 1507 1504 1501 1501 1500 1499 1499 1498 1498 1497 1496 1498 1498 1498 1499 1499 1500 1502 1504 1505 1506 1508 1509 1511 1512 1514 1516 1518 1519 1521 1522 1523 1525 1526 1527 1529 1530 1531 1532 1533 1534 1535 1536 1537 1538
1506 1513 1508 1503 1502 1500 1499 1498 1498 1498 1497 1496 1495 1495 1494 1495 1496 1495 1495 1496 1497 1499 1501 1503 1504 1505 1507 1508 1510 1512 1514 1516 1517 1519 1520 1522 1523 1525 1526 1527 1529 1530 1531 1532 1533 1534 1535 1536 1536
1504 1506 1503 1500 1499 1498 1497 1497 1497 1497 1496 1494 1493 1492 1492 1493 1493 1493 1493 1494 1495 1497 1498 1500 1502 1503 1504 1505 1508 1510 1511 1513 1515 1517 1518 1520 1521 1523 1525 1526 1527 1528 1529 1530 1531 1532 1533 1534 1535
1503 1501 1500 1498 1497 1497 1496 1496 1495 1494 1493 1492 1491 1491 1490 1490 1490 1491 1491 1492 1493 1494 1496 1497 1499 1500 1502 1504 1505 1507 1509 1511 1512 1514 1516 1517 1519 1521 1522 1524 1525 1526 1527 1529 1530 1531 1531 1532 1533
1501 1499 1498 1496 1495 1494 1494 1494 1493 1491 1490 1490 1489 1489 1488 1488 1489 1489 1489 1491 1491 1492 1493 1495 1496 1497 1499 1501 1502 1504 1506 1508 1510 1512 1514 1515 1517 1518 1520 1522 1523 1525 1526 1527 1528 1529 1530 1530 1531
1498 1497 1497 1495 1493 1493 1493 1492 1492 1489 1489 1488 1488 1487 1486 1486 1486 1487 1487 1487 1489 1489 1491 1492 1493 1495 1497 1498 1499 1502 1504 1506 1507 1509 1511 1513 1515 1516 1518 1519 1521 1522 1524 1525 1526 1527 1528 1529 1529
1497 1498 1496 1493 1492 1491 1492 1492 1489 1487 1488 1487 1487 1486 1486 1486 1486 1485 1485 1485 1486 1488 1489 1490 1491 1493 1494 1496 1498 1499 1501 1503 1505 1507 1509 1511 1513 1514 1516 1517 1519 1520 1522 1523 1524 1525 1526 1527 1527
1497 1499 1500 1493 1491 1490 1495 1494 1486 1485 1486 1485 1485 1485 1484 1484 1484 1483 1483 1483 1485 1486 1487 1488 1489 1491 1492 1494 1495 1497 1499 1501 1502 1504 1506 1508 1510 1512 1514 1515 1517 1518 1519 1521 1522 1523 1524 1524 1525
1501 1504 1500 1495 1490 1490 1493 1491 1485 1483 1483 1483 1483 1483 1482 1482 1482 1482 1482 1483 1484 1485 1486 1487 1488 1489 1490 1491 1493 1495 1496 1498 1500 1502 1504 1505 1508 1510 1511 1513 1514 1516 1517 1518 1519 1520 1521 1522 1523
1503 1503 1499 1496 1491 1491 1491 1489 1484 1482 1482 1481 1481 1481 1481 1480 1480 1481 1481 1482 1483 1484 1485 1486 1487 1488 1489 1490 1492 1493 1495 1496 1498 1499 1501 1503 1505 1507 1509 1510 1512 1513 1514 1515 1516 1518 1519 1520 1520
1497 1498 1497 1493 1489 1490 1489 1486 1482 1481 1481 1480 1480 1480 1480 1480 1480 1480 1481 1481 1481 1482 1483 1484 1485 1487 1488 1489 1490 1491 1492 1494 1496 1497 1499 1501 1502 1504 1506 1507 1509 1510 1512 1513 1514 1515 1516 1517 1518
1495 1496 1496 1492 1488 1489 1488 1485 1480 1478 1478 1477 1477 1478 1478 1478 1478 1478 1479 1479 1480 1481 1482 1482 1484 1485 1486 1487 1488 1489 1491 1492 1494 1495 1497 1498 1500 1502 1503 1505 1506 1507 1509 1510 1511 1512 1513 1514 1515
1494 1495 1494 1493 1490 1487 1488 1485 1479 1476 1475 1475 1475 1475 1475 1475 1476 1476 1477 1478 1479 1481 1481 1481 1482 1483 1484 1485 1487 1488 1489 1491 1492 1493 1494 1496 1497 1499 1500 1502 1503 1505 1506 1507 1508 1510 1511 1511 1512
1494 1489 1490 1490 1493 1495 1490 1494 1480 1476 1475 1474 1474 1473 1473 1473 1474 1475 1476 1478 1478 1480 1481 1481 1482 1482 1483 1484 1485 1486 1487 1488 1490 1491 1492 1493 1495 1496 1497 1499 1500 1502 1503 1504 1505 1507 1508 1509 1509
1489 1487 1488 1489 1492 1495 1492 1494 1484 1477 1475 1472 1471 1471 1472 1472 1473 1474 1475 1477 1478 1479 1479 1480 1480 1481 1482 1483 1484 1485 1486 1487 1489 1489 1490 1491 1492 1493 1495 1496 1498 1499 1500 1501 1503 1504 1505 1506 1507
1487 1488 1489 1492 1495 1497 1488 1492 1484 1477 1471 1469 1468 1468 1469 1470 1472 1473 1474 1476 1477 1478 1479 1479 1480 1480 1481 1482 1483 1484 1484 1486 1487 1487 1488 1489 1490 1491 1492 1493 1495 1496 1498 1499 1500 1501 1502 1504 1505
1488 1494 1501 1499 1501 1493 1485 1486 1480 1470 1467 1466 1466 1466 1467 1469 1470 1471 1473 1474 1475 1476 1477 1478 1478 1479 1480 1481 1481 1482 1483 1484 1484 1485 1486 1487 1488 1489 1490 1491 1492 1493 1495 1496 1497 1498 1500 1501 1502
1489 1491 1499 1499 1499 1495 1487 1485 1475 1466 1464 1464 1464 1465 1466 1467 1469 1470 1471 1473 1474 1475 1476 1477 1477 1478 1479 1480 1480 1481 1481 1482 1483 1483 1484 1485 1486 1486 1487 1488 1489 1490 1491 1492 1494 1495 1496 1497 1498
1487 1491 1490 1496 1496 1496 1488 1479 1471 1464 1464 1463 1464 1464 1465 1466 1468 1469 1470 1471 1473 1474 1475 1476 1476 1477 1478 1478 1479 1479 1479 1479 1480 1481 1482 1483 1484 1484 1485 1486 1486 1487 1488 1489 1490 1491 1492 1493 1495
1484 1486 1494 1496 1495 1491 1483 1480 1475 1467 1465 1465 1464 1464 1465 1466 1467 1468 1470 1471 1472 1473 1474 1475 1475 1476 1476 1477 1477 1477 1477 1477 1477 1478 1478 1479 1480 1481 1482 1483 1483 1484 1484 1485 1487 1487 1488 1489 1490
1485 1487 1489 1494 1494 1493 1489 1480 1466 1465 1464 1464 1464 1463 1464 1465 1466 1467 1468 1470 1471 1472 1472 1473 1474 1474 1474 1475 1475 1475 1474 1474 1474 1474 1475 1476 1477 1478 1479 1480 1480 1480 1481 1481 1482 1483 1484 1485 1486
1480 1481 1486 1493 1493 1494 1494 1481 1462 1462 1462 1462 1462 1463 1463 1464 1465 1466 1467 1468 1469 1469 1470 1471 1471 1472 1472 1473 1473 1472 1472 1471 1471 1471 1472 1473 1474 1475 1476 1477 1477 1477 1477 1477 1478 1479 1480 1480 1482